Location: Worth Mountain WMA
(34.9569°N, 81.4819°W)
Time: 08:17:51
(UTC-05:00)

Okean 1-7 Rocket - Pass Details

Date: 18 August 2017
Orbit: 615 x 651 km, 82.5° (Epoch: 22 November)

Event Time Altitude Azimuth Distance (km) Brightness Sun altitude
Rises 21:58:30 0° 2° (N) 2,930 7.5 -20.9°
Reaches altitude 10° 22:00:51 10° 10° (N) 2,024 6.5 -21.3°
Enters shadow 22:04:28 37° 59° (ENE) 992 4.4 -21.9°
